Regional Weather Roundup
Issued by NWS

Home | Current Version | Previous Version | Text Only | Print | Product List | Glossary Off
Versions: 1 2 3 4 5 6 7 8 9 10 11 12 13 14 15 16 17 18 19 20 21 22 23 24 25 26 27 28 29 30 31 32 33 34 35 36 37 38 39 40 41 42 43 44 45 46 47 48 49 50

000
ASUS43 KDMX 270107
RWRIA

WEATHER ROUNDUP FOR IOWA
NATIONAL WEATHER SERVICE DES MOINES IA
800 PM CDT WED AUG 26 2015

NOTE: "FAIR" INDICATES FEW OR NO CLOUDS BELOW 12,000 FEET WITH NO
SIGNIFICANT WEATHER AND/OR OBSTRUCTIONS TO VISIBILITY.

* - THESE STATIONS ARE NOT NWS STATIONS...THUS NOT UNDER NWS
QUALITY CONTROL.  THEY ALSO DO NOT REPORT WEATHER SUCH
AS PRECIPITATION OR FOG.

IAZ001>003-012>014-020>022-031>034-043>046-270200-
   NORTHWEST IOWA

CITY           SKY/WX    TMP DP  RH WIND       PRES   REMARKS
CARROLL *      CLEAR     64  61  88 SE5       30.11S
CHEROKEE *     PTCLDY    68  63  83 SE7       30.09F
DENISON *      CLEAR     68  63  83 MISG      30.08F
LE MARS *      CLEAR     70  64  83 SE6       30.07F
ORANGE CITY *  CLEAR     68  63  83 SE3       30.08F
SHELDON *      CLEAR     66  61  82 SE7       30.07F
SIOUX CITY     CLEAR     72  63  73 SE9       30.05F
SPENCER        PTCLDY    65  54  67 SE8       30.11F
STORM LAKE *   CLEAR     66  59  77 SE7       30.12S
$$

IAZ055>058-069>071-079>083-090>094-270200-
   SOUTHWEST IOWA

CITY           SKY/WX    TMP DP  RH WIND       PRES   REMARKS
ATLANTIC *     CLEAR     70  61  73 SE3       30.10F
AUDUBON *      CLEAR     66  61  82 CALM      30.12F
CLARINDA *     PTCLDY    72  63  73 E5        30.11F
COUNCIL BLFS * CLEAR     70  64  83 E6        30.10S
CRESTON *      CLEAR     66  59  77 SE5       30.14S
HARLAN  *      CLEAR     68  68 100 CALM      30.14S
LAMONI         PTCLDY    71  55  56 CALM      30.13S
RED OAK *      CLEAR     70  63  78 E6        30.10F
SHENANDOAH *   PTCLDY    72  66  83 SE3       30.10S
$$

IAZ047>049-059>061-072>074-084-270200-
   CENTRAL IOWA

CITY           SKY/WX    TMP DP  RH WIND       PRES   REMARKS
AMES           CLEAR     63  59  87 CALM      30.13S
ANKENY *       CLEAR     64  59  82 CALM      30.13S
CHARITON *     PTCLDY    68  59  73 CALM      30.13F
DES MOINES     PTCLDY    71  54  54 SE5       30.12S
GRINNELL*      PTCLDY    68  57  68 CALM      30.14S
KNOXVILLE *    CLEAR     70  54  56 CALM      30.12S
MARSHALLTOWN   CLEAR     68  57  68 CALM      30.13R
PELLA *        CLEAR     64  61  88 CALM      30.14S
PERRY *          N/A     64  59  82 E5        30.12F
$$

IAZ004>006-015-016-023>025-035-036-270200-
   NORTH CENTRAL IOWA

CITY           SKY/WX    TMP DP  RH WIND       PRES   REMARKS
ALGONA *       CLEAR     64  55  72 SE6       30.12F
CLARION *      CLEAR     63  57  82 SE5       30.13F
ESTHERVILLE    PTCLDY    62  56  80 SE6       30.11F
FORT DODGE *   CLEAR     66  55  68 S3        30.13F
MASON CITY     CLEAR     60  56  86 SE3       30.14F
FOREST CITY *  PTCLDY    61  59  94 CALM      30.13F
IOWA FALLS *     N/A     66  57  72 CALM      30.15S
$$

IAZ007>011-017>019-026>030-037>042-050>054-066-270200-
   NORTHEAST IOWA

CITY           SKY/WX    TMP DP  RH WIND       PRES   REMARKS
CEDAR RAPIDS   CLEAR     63  61  93 SW3       30.12F
CHARLES CITY * CLEAR     63  61  94 CALM      30.14S
CLINTON *      CLEAR     66  57  72 CALM      30.15S
DECORAH *      CLEAR     64  55  72 CALM      30.13S
DUBUQUE        CLEAR     65  54  67 CALM      30.13F
MONTICELLO *   CLEAR     63  59  88 CALM      30.12S
OELWEIN *        N/A     63  59  88 CALM      30.14S
WATERLOO       CLEAR     68  55  63 W5        30.12S
$$

IAZ064-065-067-068-078-270200-
   EAST CENTRAL IOWA

CITY           SKY/WX    TMP DP  RH WIND       PRES   REMARKS
DAVENPORT      CLEAR     62  58  86 CALM      30.13S
IOWA CITY      CLEAR     68  58  70 CALM      30.13F
MT. PLEASANT * CLEAR     68  57  68 CALM      30.13S
MUSCATINE *    CLEAR     66  59  77 CALM      30.13R
QUAD CITIES    MOCLDY    65  57  75 CALM      30.12S
$$

IAZ062-063-075>077-085>089-095>099-270200-
   SOUTHEAST IOWA

CITY           SKY/WX    TMP DP  RH WIND       PRES   REMARKS
BURLINGTON     CLEAR     67  60  78 CALM      30.12S
FAIRFIELD *    PTCLDY    64  57  77 CALM      30.13S
FORT MADISON * CLEAR     66  61  82 CALM      30.13F
KEOKUK *       CLEAR     66  61  82 CALM      30.11F
OSKALOOSA *      N/A     61  59  94 CALM      30.13S
CENTERVILLE *  CLEAR     66  57  72 CALM      30.15R
OTTUMWA        PTCLDY    65  56  72 CALM      30.12R
WASHINGTON *     N/A    N/A N/A N/A MISG        N/A
$$

ABBREVIATIONS USED IN REMARKS
   TC - TEMPERATURES IN CELSIUS
  WCI - WIND CHILL INDEX
   HX - HEAT INDEX
  VSB - VISIBILITY
$$



USA.gov is the U.S. government's official web portal to all federal, state and local government web resources and services.